STARLINK-30055

decayed
NORAD ID: 55699 Int'l Des: 2023-026 Owner: SPXS Country: US Constellation: starlink
LEOCIRCULAR
グループ

STARLINK-30055について

説明を読み込み中...

高度履歴

Altitude vs Time

uPlot chart will show altitude changes over time

軌道要素

1 55699U 23026E 24209.05469784 .14934803 91124-5 40694-2 0 9996
2 55699 42.9904 53.0465 0013378 291.6286 202.8958 16.26833846 82105
Epoch: Jul 27, 2024 • Age: 10058 hours

現在のステータス

Position data unavailable
打ち上げ日 Feb 27, 2023
運用期間 2.5 years
落下予定日 Jul 27, 2024
タイプ internet

技術仕様

分類 Payload
質量 730.00 kg
乾燥質量 700.00 kg
総質量 730.00 kg
長さ 0.30 m
直径 4.10 m
スパン 29.00 m
形状 Box + pan
製造者 SPXS
バスタイプ Starlink V2M
フェーズステータス Unknown Transfer Status
所有者/国 SPXS/US

大規模コンステレーション

Loading constellations...